Flag for Germany Weather past 2 weeks in Düren, North Rhine-Westphalia, Germany

Now
50 °F

Sprinkles. Broken clouds.


Feels Like: 43 °F
Forecast: 38 / 45 °F
Wind: 24 mph from Southwest

Location: Noervenich

Current Time: Mar 31, 2015 at 1:30:48 PM

Latest Report: Mar 31, 2015 at 12:20 PM


Visibility: N/A

Pressure: 29.53 "Hg

Humidity: 71%

Dew point: 41 °F

Location of DürenLocation

Historic Weather in Düren — Graph

°F

Düren temperature yesterday

Maximum temperature yesterday: 50 °F (at 4:20 PM)
Minimum temperature yesterday: 43 °F (at 7:20 AM)
Average temperature yesterday: 46 °F

Past Weeks' High & Low Weather Summary

 TemperatureHumidityPressure
High63 °F (Mar 17, 4:20 PM)100% (Mar 18, 4:20 AM)30.36 "Hg (Mar 18, 4:20 AM)
Low30 °F (Mar 23, 3:20 AM)40% (Mar 26, 1:20 PM)29.30 "Hg (Mar 31, 5:20 AM)
Average45 °F79%29.98 "Hg
* Reported Mar 16 11:20 AM — Mar 31 12:20 PM, Düren, Weather by CustomWeather, © 2015

Note: Actual official high and low records may vary slightly from our data, if they occured in-between our weather recording intervals... More about our weather records

Advertising

Düren weather history for previous 24 hours

 ConditionsComfort  
Time TempWeatherWind HumidityBarometerVisibility
12:20 PM
Tue, Mar 31
50 °FSprinkles. Broken clouds.24 mph71%29.53 "HgN/A
12:00 PM54 °FSprinkles. Scattered clouds.24 mph54%29.50 "HgN/A
11:20 AM52 °FPartly sunny.29 mph62%29.47 "HgN/A
10:20 AM48 °FSprinkles. Broken clouds.20 mph87%29.45 "HgN/A
9:20 AM50 °FRain showers. Partly sunny.28 mph82%29.39 "Hg4 mi
8:47 AM52 °FScattered clouds.33 mph77%29.33 "HgN/A
8:20 AM52 °FScattered clouds.33 mph77%29.33 "HgN/A
7:20 AM52 °FLight rain. Partly cloudy.32 mph82%29.33 "HgN/A
6:20 AM52 °FLight rain. Passing clouds.28 mph88%29.33 "HgN/A
5:20 AM54 °FPassing clouds.26 mph77%29.30 "HgN/A
4:20 AM54 °FLight rain. Passing clouds.32 mph77%29.36 "HgN/A
3:20 AM54 °FPassing clouds.21 mph77%29.39 "HgN/A
2:20 AM48 °FPassing clouds.8 mph76%29.50 "HgN/A
1:20 AM45 °FPassing clouds.3 mph81%29.62 "HgN/A
12:20 AM43 °FLight rain. Passing clouds.3 mph81%29.71 "HgN/A
11:20 PM
Mon, Mar 30
45 °FPartly cloudy.6 mph66%29.74 "HgN/A
10:20 PM43 °FPartly cloudy.5 mph66%29.80 "HgN/A
9:20 PM45 °FPassing clouds.5 mph57%29.83 "HgN/A
8:20 PM43 °FPartly sunny.5 mph61%29.86 "HgN/A
7:20 PM46 °FPassing clouds.12 mph50%29.86 "HgN/A
6:20 PM48 °FPassing clouds.13 mph50%29.86 "HgN/A
5:20 PM48 °FScattered clouds.18 mph46%29.83 "HgN/A
4:20 PM50 °FBroken clouds.18 mph47%29.80 "HgN/A
3:20 PM48 °FPartly sunny.16 mph54%29.80 "HgN/A
2:20 PM46 °FPartly sunny.14 mph62%29.74 "HgN/A
1:20 PM45 °FPartly sunny.18 mph81%29.71 "HgN/A
Weather by CustomWeather, © 2015

See weather overviewHow to use our weather pages